Simultaneous Nadir Overpasses (SNOs) Predictions

Prediction of SNOs between GOES-16 and NOAA-19 Satellite Orbit:

Table of predicted SNOs for the next 14.0 days since TLE Epoch: 3/13/2020
Index Date Time (GOES-16) GOES-16 Lat,Lon NOAA-19 Lat,Lon Distance(km) Time Diff (sec)
1 03/14/2020 22:45:38 -0.00, -75.18 -0.42, -76.85 191.99 80
2 03/15/2020 22:36:39 -0.00, -75.18 0.27, -74.01 133.75 80
3 03/16/2020 22:24:58 -0.00, -75.18 0.91, -71.15 459.63 80
4 03/18/2020 10:57:39 -0.01, -75.21 0.86, -78.98 430.34 80
5 03/19/2020 10:45:59 -0.00, -75.22 0.24, -76.12 104.19 80
6 03/20/2020 10:31:39 0.00, -75.23 -0.44, -73.28 222.29 80
7 03/22/2020 22:52:43 -0.00, -75.24 -0.69, -78.26 344.07 80
8 03/23/2020 22:41:03 -0.01, -75.26 -0.05, -75.40 16.84 80
9 03/24/2020 22:32:03 -0.01, -75.28 0.64, -72.56 310.62 80
10 03/27/2020 10:53:06 -0.01, -75.34 0.48, -77.54 250.34 80




NCC Satellite Simultaneous Nadir Overpasses (SNOs) Prediction Service
